Wind_Speed
14 14 15 15 15 13 13 15 15 14 12 11 10 10 7 3 5 8 5 8 8 11 10 3 5 5 4 2 2 3 3 2 3 5 2 1 3 3 4 3 5 4 1 1 4
15 14 14 16 16 14 13 15 16 15 12 10 9 9 6 5 2 5 10 10 8 9 2 4 4 4 3 2 2 4 3 7 2 1 2 1 1 2 4 5 3 4 3 3 8
16 16 16 16 17 15 14 15 16 14 11 9 9 8 7 3 1 2 14 10 7 6 2 3 3 3 3 2 1 3 4 3 2 1 1 2 3 2 1 5 7 4 6 6 6
16 17 17 17 17 16 15 15 16 14 10 8 8 7 5 1 2 4 11 9 7 3 5 4 3 3 4 4 1 2 1 1 1 1 2 3 2 3 5 7 3 7 8 6 8
18 18 18 19 18 17 16 15 16 13 10 7 7 9 0 1 2 8 9 8 4 6 6 2 3 2 5 4 3 2 2 3 2 5 4 3 6 4 9 9 7 7 4 6 8
17 19 20 19 19 19 17 16 16 12 8 6 6 6 0 1 2 9 9 4 9 8 5 6 3 1 4 2 3 1 2 4 3 4 2 3 5 3 7 4 7 6 10 8 8
17 19 19 20 20 21 19 18 15 10 5 5 5 3 1 2 1 10 7 5 7 6 4 4 3 3 2 3 1 1 1 1 6 4 2 4 1 7 4 2 7 10 9 9 8
16 18 20 21 21 22 22 17 15 8 6 6 4 0 2 1 3 8 7 2 4 6 6 4 4 5 3 2 5 4 5 3 2 6 3 6 9 6 3 3 13 7 8 7 8
16 17 19 22 23 24 22 18 8 2 4 2 1 1 3 1 2 6 6 3 3 3 4 4 5 4 5 4 4 7 1 2 9 4 4 2 8 5 5 9 14 11 8 7 7
17 18 19 22 24 24 21 7 2 2 2 1 1 3 1 2 3 6 4 5 3 2 3 5 5 3 4 4 3 2 2 3 5 3 5 7 18 15 10 6 10 9 8 6 6
16 18 18 22 24 21 18 1 4 2 6 1 1 2 2 5 1 4 5 2 1 6 2 3 5 2 3 2 3 4 1 4 5 3 6 4 12 18 13 7 9 7 4 6 6
16 17 16 19 22 14 9 4 3 1 5 2 1 1 1 2 1 2 5 2 2 2 1 4 2 3 4 3 2 2 2 5 5 2 3 7 18 13 7 5 2 5 5 6 3
17 17 15 17 13 8 12 6 4 3 3 2 2 2 2 1 2 2 3 1 3 2 1 4 1 5 3 2 1 3 4 1 3 6 3 7 7 3 2 2 3 4 4 2 2
16 16 16 15 1 7 4 10 5 3 3 3 3 2 2 2 1 0 1 1 3 4 3 4 2 4 3 1 4 3 4 1 4 3 3 5 4 5 3 4 4 5 3 4 8
20 15 14 6 2 3 4 8 5 1 2 2 3 1 2 3 3 1 2 2 5 5 4 2 5 3 3 3 5 2 2 1 1 1 3 1 2 7 2 5 8 7 5 6 7
19 13 14 5 2 3 5 9 1 3 7 2 3 3 3 1 1 2 2 5 2 4 4 2 0 1 2 2 2 2 2 4 3 2 3 3 3 6 5 6 3 3 4 7 8
19 16 16 9 3 7 7 3 4 4 2 3 2 3 1 3 2 2 2 2 4 4 4 1 2 1 2 2 1 4 4 4 5 4 5 1 1 10 7 6 4 7 5 8 8
21 14 17 11 9 7 8 3 6 3 5 2 1 2 3 2 1 2 3 2 3 3 3 5 4 5 2 1 3 3 4 5 5 2 5 4 6 6 5 4 6 3 5 8 9
11 11 5 10 10 12 4 2 4 4 1 5 1 4 3 1 1 2 6 4 6 8 7 5 1 2 3 2 2 2 3 3 6 1 3 3 7 11 6 7 6 3 6 8 11
9 3 5 11 13 5 3 6 5 4 7 1 2 2 2 1 3 4 6 3 5 3 2 4 3 1 3 3 4 4 4 3 3 1 5 5 6 6 5 4 6 5 9 11 9
8 2 6 14 9 3 4 6 5 3 3 5 4 2 2 2 4 3 4 1 2 4 3 3 2 0 2 6 8 2 1 4 3 3 4 3 7 7 7 5 7 6 7 8 9
6 3 12 21 2 2 3 6 4 4 2 3 2 3 5 2 3 4 5 2 5 5 6 2 3 4 3 2 2 3 5 6 4 5 2 3 8 2 7 5 5 6 7 7 6
3 2 7 8 6 6 1 3 5 6 6 8 9 3 3 5 3 3 1 4 3 4 6 5 2 2 4 2 3 4 5 5 5 3 6 6 7 1 2 4 5 6 9 6 6
3 4 2 3 2 5 7 4 6 3 4 4 5 5 4 4 3 3 3 1 1 2 4 4 2 5 5 3 4 4 5 7 6 4 4 10 11 18 13 9 10 10 7 6 5
3 4 5 6 8 5 11 10 7 6 3 5 1 5 8 5 3 6 3 2 2 4 3 3 4 2 4 6 3 5 5 13 13 10 8 8 10 17 10 7 9 6 6 7 8
3 3 2 2 6 15 13 15 13 5 9 5 5 14 12 8 8 8 7 4 5 2 5 1 2 2 4 2 4 6 13 16 18 10 14 19 24 26 22 9 4 7 4 7 7
9 18 3 5 7 13 21 22 15 10 7 4 16 6 12 14 4 2 4 2 5 7 6 5 4 3 5 3 6 8 9 14 7 5 11 9 16 1 5 4 5 7 6 7 7
Wind_Direction
350 354 355 352 343 345 345 340 341 339 334 329 338 349 343 345 30 46 37 334 313 335 326 323 112 121 83 46 34 108 68 212 241 174 180 17 16 349 308 274 345 325 202 150 339
345 349 355 350 341 344 346 340 341 336 336 330 344 349 353 340 336 35 357 338 322 331 333 109 103 122 61 95 27 94 128 220 203 177 231 237 187 279 343 354 280 300 266 321 337
343 345 345 346 342 343 345 344 338 336 337 333 347 345 343 338 323 303 351 349 338 326 198 106 99 112 94 100 172 159 195 218 246 185 26 323 300 316 3 308 234 230 277 303 298
341 340 340 343 341 343 343 340 337 334 332 333 341 346 336 57 229 338 348 351 357 16 132 106 77 95 118 155 170 150 326 22 207 13 5 302 291 258 186 234 257 263 273 285 290
339 337 338 340 339 342 339 337 336 333 326 326 331 339 321 22 280 342 345 0 25 97 65 76 80 114 143 143 123 156 13 346 359 321 269 293 261 253 266 270 293 279 281 307 311
334 337 334 335 337 339 337 334 333 328 323 325 332 338 51 252 3 353 344 21 54 76 62 51 114 123 99 88 123 159 304 286 342 333 298 300 278 120 268 231 289 345 313 291 285
332 334 333 335 338 337 334 330 328 316 307 321 329 347 45 179 323 354 359 42 52 80 98 78 100 101 119 114 143 114 63 70 16 328 356 264 157 213 217 323 300 310 296 288 279
333 331 335 335 336 335 330 327 320 291 276 304 314 350 232 279 322 353 13 17 61 79 95 84 68 99 57 137 29 46 52 7 334 354 334 68 271 248 288 329 295 275 289 289 291
328 331 336 335 337 334 330 329 321 284 271 259 246 80 274 294 0 355 14 17 5 74 76 79 73 80 28 78 32 12 215 303 320 50 326 80 275 239 336 333 304 307 308 302 310
324 330 334 336 336 337 330 341 52 88 97 115 37 29 327 318 328 348 10 17 26 8 42 48 53 73 44 67 217 223 320 284 255 310 349 289 267 289 298 298 277 288 287 300 37
316 322 333 338 335 337 339 12 15 343 41 246 287 279 331 321 310 10 357 20 58 48 116 9 76 170 144 67 84 101 111 258 261 297 319 231 279 285 298 294 282 268 316 75 96
306 312 325 333 333 347 2 54 68 274 309 228 248 269 271 358 357 345 3 127 91 148 105 33 145 155 119 85 94 127 238 254 270 265 350 317 294 288 281 261 287 138 97 76 23
300 305 313 328 337 9 52 48 6 344 258 266 221 225 216 40 178 300 11 143 106 94 37 131 89 123 112 87 53 219 203 229 256 326 242 304 288 306 332 71 81 85 117 98 349
307 291 299 327 288 2 49 358 352 326 23 223 226 228 146 122 269 83 28 105 47 151 124 115 150 134 133 183 144 272 158 124 282 17 274 40 276 294 241 283 208 187 182 350 348
328 278 284 304 312 79 340 337 333 276 347 135 191 137 127 164 125 41 36 28 146 143 116 194 150 163 151 199 171 224 357 263 173 130 25 241 64 271 292 255 230 222 225 320 309
318 287 269 251 125 118 17 337 33 56 247 201 146 169 143 130 121 128 83 53 116 98 41 107 333 134 153 141 194 0 84 51 53 64 15 244 120 270 214 212 162 189 243 289 303
316 304 245 223 207 163 81 54 81 189 347 273 199 155 211 159 175 160 147 139 154 110 197 181 173 164 138 150 110 67 57 343 350 8 221 4 190 248 259 233 204 187 287 307 307
307 285 236 223 204 152 90 84 239 201 222 101 35 92 177 139 206 152 132 219 225 125 113 160 295 168 153 124 151 71 133 145 242 266 280 316 233 250 232 266 156 148 301 301 300
301 240 217 200 170 162 107 169 238 212 178 152 213 88 315 348 178 165 207 216 192 178 167 142 177 75 56 98 95 209 54 141 102 46 32 263 284 287 262 205 183 277 312 296 333
279 259 232 178 162 121 89 223 208 169 132 136 191 116 219 258 186 185 186 196 183 180 116 201 100 299 149 121 41 105 132 69 5 359 302 284 280 244 268 224 203 312 326 328 311
285 246 166 159 143 77 201 225 206 185 142 139 177 118 212 284 211 231 218 222 150 134 98 144 100 104 129 206 169 99 61 50 116 141 177 294 265 222 236 219 195 248 307 294 294
253 228 170 154 147 192 208 185 162 158 125 98 104 165 177 190 234 243 230 227 150 146 155 176 137 174 196 63 145 148 159 148 131 235 205 147 272 279 253 209 180 288 288 286 275
268 165 188 170 207 198 236 224 172 150 183 168 185 192 97 170 252 212 266 340 143 137 155 193 274 54 344 36 2 211 180 131 120 97 200 144 262 354 348 216 246 283 294 279 301
283 209 184 200 293 228 163 226 190 208 156 153 128 110 124 197 224 288 219 44 51 110 118 119 123 186 199 165 121 193 189 171 139 138 187 229 274 278 276 270 293 287 267 290 301
233 238 196 192 213 191 172 165 175 170 206 152 119 199 159 169 185 228 164 147 10 163 77 127 205 162 263 234 208 222 185 187 203 193 194 269 225 263 271 261 276 273 310 321 320
274 284 276 179 181 192 191 197 192 174 163 198 206 192 178 174 187 200 144 195 192 121 159 106 239 113 291 337 201 266 233 214 219 224 252 259 279 275 274 283 271 259 264 284 292
229 273 249 258 180 188 214 211 208 154 227 200 201 136 191 212 115 30 72 84 163 154 168 152 136 96 268 341 300 284 240 189 189 211 208 205 234 259 271 239 247 258 227 253 285
Height
810 807 804 803 804 798 795 793 790 788 786 785 783 780 779 778 777 775 776 777 775 773 772 770 771 772 773 776 776 779 796 800 786 787 782 784 783 779 780 780 778 773 771 772 771
810 807 803 803 804 798 794 792 789 787 785 785 782 780 779 778 778 777 778 775 773 772 771 770 772 773 778 778 780 787 801 792 783 783 783 786 786 785 784 786 782 777 773 772 772
810 807 805 803 802 797 792 790 789 787 785 784 781 780 779 778 779 777 775 773 772 771 771 771 772 773 776 778 782 787 794 785 783 783 784 785 785 784 784 785 784 776 773 772 771
810 808 805 802 800 796 792 790 789 786 784 782 781 779 778 778 781 776 774 772 771 770 770 770 773 777 781 784 781 786 784 783 783 783 785 786 785 787 788 782 775 776 774 772 771
810 808 805 802 799 795 792 789 787 785 783 781 781 779 778 779 779 776 774 772 771 770 771 772 775 778 783 783 783 785 787 787 786 787 785 785 786 786 782 777 775 774 772 771 771
810 807 804 801 798 794 790 787 785 784 782 781 780 779 778 779 777 776 774 772 770 770 773 773 776 778 782 784 786 789 788 789 788 785 785 786 786 783 774 773 774 774 773 771 770
808 806 804 800 796 792 788 785 783 782 781 780 779 778 777 778 776 776 774 773 772 772 774 775 776 778 782 786 788 787 786 787 794 789 786 787 781 787 772 774 775 774 773 771 767
806 805 802 798 794 790 786 782 780 779 780 780 779 778 778 777 776 776 774 774 774 774 774 775 775 779 784 787 792 795 797 796 791 790 787 788 787 771 772 776 770 769 769 765 763
806 803 800 797 792 788 784 780 777 777 778 778 779 778 777 777 777 776 775 775 774 774 775 775 776 788 791 794 798 809 797 801 801 797 794 791 790 771 771 773 770 767 768 765 761
804 801 799 796 792 787 782 778 777 778 778 778 779 782 779 779 777 777 776 776 776 776 777 779 789 796 807 803 803 793 801 806 814 800 800 803 792 777 774 775 774 772 768 765 763
802 800 797 794 792 787 781 778 781 782 779 780 781 781 779 778 777 777 777 776 777 780 783 788 791 791 798 801 801 805 809 816 814 805 804 799 798 779 772 775 773 768 765 765 766
800 798 796 794 793 789 783 786 790 794 788 780 780 780 780 779 778 778 778 778 778 786 784 791 788 798 801 802 803 808 813 816 807 803 807 803 786 778 774 766 762 765 767 766 765
798 796 794 793 792 790 790 793 793 793 792 779 779 779 780 780 780 779 780 780 781 785 789 792 798 800 800 803 806 810 813 809 811 812 810 810 789 765 762 761 766 767 766 765 764
796 794 792 792 795 791 793 794 793 795 797 777 781 778 779 779 779 780 780 781 784 789 794 795 799 799 802 802 810 805 810 810 814 817 825 808 822 775 765 764 763 766 766 764 763
794 792 791 790 792 791 796 795 794 796 800 778 780 778 778 780 781 781 781 780 787 791 794 793 802 801 800 800 810 805 811 813 813 823 827 809 838 782 770 763 764 766 763 764 765
793 789 789 789 789 792 791 794 794 795 789 781 777 777 779 778 780 781 781 783 788 790 799 801 803 801 799 805 806 811 811 816 823 826 863 810 812 784 769 756 755 762 764 766 764
790 789 787 785 787 788 788 795 799 799 779 782 778 776 776 779 780 781 782 786 793 802 797 800 800 804 803 803 807 811 822 863 850 869 838 811 807 774 755 756 753 760 764 764 762
786 786 783 784 785 787 787 803 781 779 781 779 780 778 778 779 780 782 787 787 793 795 815 804 804 803 804 804 803 817 829 859 845 857 847 819 819 763 753 749 753 757 764 764 762
785 784 782 781 783 785 789 789 778 784 782 780 786 787 794 786 784 783 788 786 785 792 789 803 789 807 807 806 811 819 840 833 889 902 885 829 796 763 751 754 756 759 765 764 758
785 783 781 780 784 785 789 772 774 772 777 781 776 787 796 798 788 787 784 778 783 787 791 785 803 806 812 809 815 813 824 839 876 852 864 833 817 777 746 744 757 759 763 759 759
785 781 778 780 785 787 779 773 774 771 771 776 787 786 790 791 795 800 785 779 782 789 789 795 791 810 811 811 809 827 841 851 852 852 872 882 797 766 750 745 759 759 760 761 759
780 776 776 778 786 785 773 770 764 773 775 777 779 782 787 795 801 793 780 779 782 785 793 793 798 813 797 806 804 806 815 834 851 845 862 868 802 749 751 748 751 754 757 756 755
775 772 775 775 766 771 773 765 763 770 773 773 777 778 785 791 789 792 781 786 785 785 793 795 811 816 799 807 810 804 808 817 855 861 848 865 793 749 749 748 752 756 754 753 750
778 767 773 771 765 754 762 767 764 763 764 767 775 783 790 794 796 793 784 787 787 787 786 789 810 799 771 769 795 802 801 809 828 856 849 808 776 740 741 755 754 755 752 751 749
774 753 754 755 757 756 752 755 759 765 765 767 777 771 777 789 796 796 786 790 790 786 793 794 808 820 812 804 796 793 796 801 808 808 798 768 797 754 757 768 754 755 750 748 746
767 754 753 752 744 751 746 742 749 759 760 765 765 765 769 771 770 774 782 786 783 794 795 799 809 808 810 803 802 797 785 785 786 788 795 771 766 734 734 740 752 750 754 751 747
762 760 758 740 738 740 726 727 735 746 752 751 753 761 768 763 773 778 778 779 782 790 799 802 813 827 803 805 801 785 762 767 781 786 772 789 747 751 753 751 756 747 747 746 742